IR4UCA-3 Weather Reports


time (UTC)temp
C
wind
direction
speed
KPH
gust
KPH
rain 1hr
cm
rain 24hr
cm
rain mn
cm
humidity
%
barometer
mb
20260507162356 22 145 6.4 14.5 0.00 0.00 0.00 51 1011.3
20260507162157 22 141 4.8 14.5 0.00 0.00 0.00 51 1011.2
20260507161955 22 131 4.8 16.1 0.00 0.00 0.00 51 1011.3
20260507161755 22 111 6.4 16.1 0.00 0.00 0.00 51 1011.3
20260507161554 22 124 6.4 16.1 0.00 0.00 0.00 51 1011.3
20260507161353 22 137 6.4 16.1 0.00 0.00 0.00 51 1011.3
20260507161154 22 118 8.0 16.1 0.00 0.00 0.00 51 1011.4
20260507160953 22 113 4.8 14.5 0.00 0.00 0.00 51 1011.3
20260507160752 22 133 3.2 17.7 0.00 0.00 0.00 52 1011.3
20260507160553 22 133 4.8 17.7 0.00 0.00 0.00 52 1011.3
20260507160350 22 142 4.8 17.7 0.00 0.00 0.00 52 1011.3
20260507160150 22 94 8.0 17.7 0.00 0.00 0.00 51 1011.2
20260507155949 22 141 8.0 17.7 0.00 0.00 0.00 51 1011.3
20260507155747 22 130 4.8 8.0 0.00 0.00 0.00 51 1011.4
20260507155551 22 134 1.6 8.0 0.00 0.00 0.00 52 1011.3
20260507155349 22 141 3.2 11.3 0.00 0.00 0.00 52 1011.3
20260507155147 22 96 3.2 16.1 0.00 0.00 0.00 51 1011.3
20260507154946 22 118 3.2 16.1 0.00 0.00 0.00 52 1011.4
20260507154748 22 154 3.2 16.1 0.00 0.00 0.00 52 1011.4
20260507154545 22 104 6.4 16.1 0.00 0.00 0.00 52 1011.4
20260507154345 22 102 4.8 19.3 0.00 0.00 0.00 52 1011.4
20260507154140 22 134 6.4 19.3 0.00 0.00 0.00 52 1011.4
20260507153941 22 104 8.0 19.3 0.00 0.00 0.00 52 1011.4
20260507153740 22 125 6.4 19.3 0.00 0.00 0.00 52 1011.4
20260507153538 22 61 9.7 19.3 0.00 0.00 0.00 52 1011.4
20260507153340 22 55 6.4 14.5 0.00 0.00 0.00 52 1011.4
20260507153133 22 72 4.8 14.5 0.00 0.00 0.00 52 1011.4
20260507152930 22 124 4.8 14.5 0.00 0.00 0.00 52 1011.4
20260507152729 22 107 6.4 17.7 0.00 0.00 0.00 52 1011.5
20260507152544 22 124 6.4 17.7 0.00 0.00 0.00 52 1011.5
20260507152329 22 110 4.8 17.7 0.00 0.00 0.00 52 1011.6
20260507152130 22 110 4.8 17.7 0.00 0.00 0.00 52 1011.6
20260507151929 22 134 9.7 17.7 0.00 0.00 0.00 52 1011.6
20260507151729 22 130 4.8 11.3 0.00 0.00 0.00 52 1011.6
20260507151527 22 182 4.8 11.3 0.00 0.00 0.00 51 1011.7
20260507151326 22 110 3.2 8.0 0.00 0.00 0.00 50 1011.7
20260507151125 22 111 1.6 8.0 0.00 0.00 0.00 50 1011.6
20260507150924 22 111 3.2 8.0 0.00 0.00 0.00 50 1011.7
20260507150725 22 111 3.2 8.0 0.00 0.00 0.00 50 1011.7
20260507150525 22 109 0.0 4.8 0.00 0.00 0.00 50 1011.7
20260507150323 22 109 1.6 4.8 0.00 0.00 0.00 50 1011.6
20260507150122 22 109 3.2 4.8 0.00 0.00 0.00 50 1011.6
20260507145921 22 109 3.2 4.8 0.00 0.00 0.00 49 1011.6
20260507145731 22 109 0.0 4.8 0.00 0.00 0.00 48 1011.6
20260507145540 22 109 0.0 8.0 0.00 0.00 0.00 47 1011.5
20260507145321 22 109 1.6 8.0 0.00 0.00 0.00 47 1011.6
20260507145124 22 109 0.0 8.0 0.00 0.00 0.00 47 1011.7
20260507144919 22 109 3.2 8.0 0.00 0.00 0.00 47 1011.7
20260507144719 22 109 4.8 8.0 0.00 0.00 0.00 46 1011.7
20260507144524 22 87 1.6 4.8 0.00 0.00 0.00 46 1011.7
20260507144317 22 87 1.6 4.8 0.00 0.00 0.00 46 1011.7
20260507144119 22 87 1.6 4.8 0.00 0.00 0.00 47 1011.7
20260507143919 22 85 3.2 9.7 0.00 0.00 0.00 46 1011.7
20260507143714 22 80 0.0 9.7 0.00 0.00 0.00 47 1011.6
20260507143519 22 80 1.6 9.7 0.00 0.00 0.00 47 1011.7
20260507143313 22 80 3.2 9.7 0.00 0.00 0.00 47 1011.7
20260507143115 23 49 4.8 24.1 0.00 0.00 0.00 46 1011.6
20260507142913 23 127 3.2 24.1 0.00 0.00 0.00 46 1011.6
20260507142714 23 133 4.8 24.1 0.00 0.00 0.00 46 1011.6
20260507142530 23 37 3.2 24.1 0.00 0.00 0.00 45 1011.7
20260507142315 23 116 14.5 24.1 0.00 0.00 0.00 44 1011.5
20260507142120 23 66 9.7 19.3 0.00 0.00 0.00 43 1011.5
20260507141914 23 34 8.0 14.5 0.00 0.00 0.00 43 1011.5
20260507141710 23 6 3.2 9.7 0.00 0.00 0.00 43 1011.5
20260507141521 23 39 4.8 9.7 0.00 0.00 0.00 43 1011.6
20260507141310 23 61 3.2 8.0 0.00 0.00 0.00 43 1011.6
20260507141113 24 78 4.8 8.0 0.00 0.00 0.00 43 1011.6
20260507140911 24 305 3.2 8.0 0.00 0.00 0.00 42 1011.5
20260507140714 24 252 3.2 8.0 0.00 0.00 0.00 42 1011.6
20260507140526 24 252 1.6 8.0 0.00 0.00 0.00 42 1011.6
20260507140311 24 252 3.2 8.0 0.00 0.00 0.00 43 1011.7
20260507140125 24 248 3.2 8.0 0.00 0.00 0.00 42 1011.7
20260507135907 24 248 4.8 8.0 0.00 0.00 0.00 42 1011.7
20260507135708 24 295 3.2 6.4 0.00 0.00 0.00 43 1011.6
20260507135529 24 251 1.6 6.4 0.00 0.00 0.00 43 1011.6
20260507135306 24 203 1.6 8.0 0.00 0.00 0.00 42 1011.6
20260507135108 23 197 1.6 8.0 0.00 0.00 0.00 42 1011.7
20260507134904 23 197 3.2 8.0 0.00 0.00 0.00 42 1011.7
20260507134703 23 188 3.2 8.0 0.00 0.00 0.00 42 1011.7
20260507134502 23 172 3.2 8.0 0.00 0.00 0.00 43 1011.7
20260507134309 23 152 3.2 8.0 0.00 0.00 0.00 43 1011.7
20260507134052 23 144 1.6 11.3 0.00 0.00 0.00 43 1011.7
20260507133851 23 157 3.2 11.3 0.00 0.00 0.00 43 1011.7
20260507133653 23 152 1.6 11.3 0.00 0.00 0.00 43 1011.7
20260507133450 23 192 3.2 11.3 0.00 0.00 0.00 42 1011.7
20260507133253 23 228 3.2 11.3 0.00 0.00 0.00 43 1011.7
20260507133049 23 255 1.6 8.0 0.00 0.00 0.00 43 1011.7
20260507132849 23 255 3.2 8.0 0.00 0.00 0.00 43 1011.7
20260507132649 23 186 3.2 8.0 0.00 0.00 0.00 43 1011.7
20260507132454 22 202 3.2 8.0 0.00 0.00 0.00 44 1011.8
20260507132239 22 197 3.2 8.0 0.00 0.00 0.00 44 1011.8
20260507132037 22 78 1.6 8.0 0.00 0.00 0.00 44 1011.8
20260507131837 22 73 3.2 8.0 0.00 0.00 0.00 43 1011.8
20260507131636 22 73 4.8 11.3 0.00 0.00 0.00 43 1011.8
20260507131236 22 80 4.8 14.5 0.00 0.00 0.00 44 1011.7
20260507131038 22 68 3.2 14.5 0.00 0.00 0.00 44 1011.8
20260507130836 22 16 6.4 14.5 0.00 0.00 0.00 43 1011.8
20260507130639 22 0 9.7 14.5 0.00 0.00 0.00 42 1011.8
20260507130437 22 3 8.0 11.3 0.00 0.00 0.00 43 1011.8
20260507130233 22 10 3.2 11.3 0.00 0.00 0.00 44 1011.8
20260507130043 22 58 3.2 11.3 0.00 0.00 0.00 45 1011.8
20260507125832 22 47 3.2 14.5 0.00 0.00 0.00 44 1011.8
20260507125634 22 65 8.0 14.5 0.00 0.00 0.00 43 1011.9
20260507125447 22 25 4.8 14.5 0.00 0.00 0.00 43 1011.9
20260507125233 22 45 6.4 14.5 0.00 0.00 0.00 42 1011.9
20260507125024 22 72 8.0 14.5 0.00 0.00 0.00 42 1011.9
20260507124819 23 75 4.8 9.7 0.00 0.00 0.00 43 1011.8
20260507124617 22 93 1.6 8.0 0.00 0.00 0.00 43 1011.9
20260507124416 22 55 3.2 11.3 0.00 0.00 0.00 44 1011.9
20260507124213 22 76 1.6 14.5 0.00 0.00 0.00 44 1011.9
20260507124018 22 341 3.2 14.5 0.00 0.00 0.00 44 1011.9
20260507123818 22 148 3.2 14.5 0.00 0.00 0.00 43 1012.0
20260507123612 22 134 6.4 14.5 0.00 0.00 0.00 43 1012.0
20260507123409 22 106 4.8 14.5 0.00 0.00 0.00 44 1012.0
20260507123209 22 80 3.2 11.3 0.00 0.00 0.00 44 1011.9
20260507123017 22 123 3.2 11.3 0.00 0.00 0.00 43 1012.0
20260507122809 22 148 4.8 11.3 0.00 0.00 0.00 43 1012.0
20260507122611 22 61 4.8 11.3 0.00 0.00 0.00 44 1012.1
20260507122410 22 272 3.2 6.4 0.00 0.00 0.00 44 1012.1
20260507122207 22 307 1.6 6.4 0.00 0.00 0.00 45 1012.1
20260507122022 22 307 3.2 8.0 0.00 0.00 0.00 44 1012.1
20260507121808 22 307 1.6 9.7 0.00 0.00 0.00 43 1012.1
20260507121607 22 307 3.2 9.7 0.00 0.00 0.00 43 1012.1
20260507121402 22 307 1.6 9.7 0.00 0.00 0.00 45 1012.1
20260507121202 22 306 3.2 9.7 0.00 0.00 0.00 45 1012.1
20260507121001 22 305 4.8 9.7 0.00 0.00 0.00 46 1012.1
20260507120802 22 327 1.6 8.0 0.00 0.03 0.00 46 1012.2
20260507120601 22 327 6.4 8.0 0.00 0.03 0.00 45 1012.2
20260507120406 21 296 4.8 8.0 0.00 0.03 0.00 46 1012.3
20260507120203 21 296 3.2 8.0 0.00 0.03 0.00 45 1012.2
20260507115803 21 303 1.6 9.7 0.00 0.03 0.00 45 1012.3
20260507115558 21 303 3.2 11.3 0.00 0.03 0.00 45 1012.3
20260507115357 21 333 3.2 11.3 0.00 0.03 0.00 46 1012.3
20260507115158 21 275 4.8 11.3 0.00 0.03 0.00 45 1012.3
20260507114954 21 292 6.4 11.3 0.00 0.03 0.00 46 1012.4
20260507114755 21 307 6.4 11.3 0.00 0.03 0.00 47 1012.4
20260507114545 21 289 3.2 11.3 0.00 0.03 0.00 46 1012.4
20260507114344 21 18 1.6 14.5 0.00 0.05 0.00 47 1012.4
20260507114142 21 18 1.6 14.5 0.00 0.05 0.00 49 1012.5
20260507113943 21 18 4.8 14.5 0.00 0.05 0.00 48 1012.5
20260507113740 21 23 4.8 16.1 0.00 0.05 0.00 48 1012.5
20260507113541 21 7 8.0 19.3 0.00 0.05 0.00 47 1012.5
20260507113339 21 348 9.7 19.3 0.00 0.05 0.00 48 1012.6
20260507113132 21 11 8.0 19.3 0.00 0.05 0.00 48 1012.5
20260507112932 21 0 8.0 19.3 0.00 0.05 0.00 47 1012.6
20260507112731 21 35 12.9 19.3 0.00 0.05 0.00 47 1012.5
20260507112533 21 354 8.0 16.1 0.00 0.05 0.00 48 1012.5
20260507112331 21 0 9.7 16.1 0.00 0.05 0.00 47 1012.6
20260507112131 21 0 8.0 16.1 0.00 0.05 0.00 47 1012.6
20260507111931 21 357 8.0 16.1 0.00 0.05 0.00 46 1012.6
20260507111730 21 350 6.4 16.1 0.00 0.05 0.00 47 1012.6
20260507111529 21 49 3.2 9.7 0.00 0.05 0.00 46 1012.6
20260507111330 21 52 3.2 9.7 0.00 0.05 0.00 46 1012.5
20260507111127 21 56 3.2 9.7 0.00 0.05 0.00 46 1012.7
20260507110931 21 28 1.6 9.7 0.00 0.05 0.00 46 1012.7
20260507110721 21 11 4.8 14.5 0.00 0.05 0.00 46 1012.7
20260507110524 21 285 4.8 14.5 0.00 0.05 0.00 45 1012.7
20260507110319 21 28 3.2 14.5 0.00 0.05 0.00 45 1012.7
20260507110118 21 312 4.8 14.5 0.00 0.05 0.00 45 1012.7
20260507105918 21 0 8.0 14.5 0.00 0.05 0.00 47 1012.7
20260507105717 21 31 3.2 11.3 0.00 0.05 0.00 48 1012.7
20260507105532 21 0 8.0 11.3 0.00 0.05 0.00 48 1012.8
20260507105323 21 0 4.8 11.3 0.00 0.05 0.00 48 1012.8
20260507105121 21 21 3.2 11.3 0.00 0.05 0.00 48 1012.8
20260507104933 21 48 8.0 11.3 0.00 0.05 0.00 47 1012.8
20260507104716 21 49 1.6 14.5 0.00 0.05 0.00 49 1012.8
20260507104530 21 47 1.6 14.5 0.00 0.05 0.00 49 1012.8
20260507104314 21 38 4.8 14.5 0.00 0.05 0.00 49 1012.9
20260507104113 21 85 3.2 14.5 0.00 0.05 0.00 49 1012.8
20260507103913 21 66 8.0 14.5 0.00 0.05 0.00 49 1012.8
20260507103711 21 54 4.8 11.3 0.00 0.05 0.00 49 1012.8
20260507103523 21 135 4.8 11.3 0.00 0.05 0.00 49 1012.9
20260507103314 20 55 8.0 11.3 0.00 0.05 0.00 49 1012.8
20260507103110 20 48 6.4 9.7 0.00 0.05 0.00 50 1012.9
20260507102913 20 45 4.8 11.3 0.00 0.05 0.00 51 1012.9
20260507102710 20 3 1.6 11.3 0.00 0.05 0.00 51 1012.9
20260507102521 20 1 3.2 11.3 0.00 0.05 0.00 52 1013.0
20260507102315 20 0 6.4 11.3 0.00 0.05 0.00 49 1012.9
20260507102111 20 272 8.0 11.3 0.00 0.05 0.00 49 1013.1
20260507101908 20 286 8.0 11.3 0.00 0.05 0.00 48 1013.1
20260507101707 20 306 4.8 11.3 0.00 0.05 0.00 48 1013.1
20260507101507 20 282 4.8 11.3 0.00 0.05 0.00 48 1013.1
20260507101301 20 300 6.4 11.3 0.00 0.05 0.00 47 1013.1
20260507101102 21 288 8.0 11.3 0.00 0.05 0.00 47 1013.2
20260507100901 21 354 3.2 9.7 0.00 0.05 0.00 48 1013.0
20260507100701 21 0 4.8 9.7 0.00 0.05 0.00 48 1013.1
20260507100514 21 1 6.4 9.7 0.00 0.05 0.00 48 1013.1
20260507100300 21 42 3.2 8.0 0.00 0.05 0.00 48 1013.1
20260507100109 21 123 4.8 9.7 0.00 0.05 0.00 48 1013.1
20260507095904 21 120 3.2 9.7 0.00 0.05 0.00 48 1013.2
20260507095701 20 120 3.2 9.7 0.00 0.05 0.00 49 1013.1
20260507095501 20 118 3.2 9.7 0.00 0.05 0.00 49 1013.2
20260507095256 20 85 8.0 9.7 0.00 0.05 0.00 49 1013.1
20260507095057 20 45 3.2 8.0 0.00 0.05 0.00 51 1013.2
20260507094854 20 45 3.2 6.4 0.00 0.05 0.00 52 1013.2
20260507094654 20 45 3.2 6.4 0.00 0.05 0.00 51 1013.1
20260507094455 20 45 1.6 8.0 0.00 0.05 0.00 51 1013.2
20260507094254 20 45 1.6 8.0 0.00 0.05 0.00 50 1013.3
20260507094051 20 45 4.8 8.0 0.00 0.05 0.00 51 1013.2
20260507093850 20 76 3.2 9.7 0.00 0.05 0.00 52 1013.2
20260507093649 20 121 4.8 9.7 0.00 0.05 0.00 52 1013.3
20260507093451 20 82 1.6 9.7 0.00 0.05 0.00 53 1013.2
20260507093250 20 116 3.2 11.3 0.00 0.05 0.00 53 1013.2
20260507093048 20 68 3.2 11.3 0.00 0.05 0.00 53 1013.2
20260507092849 20 80 4.8 11.3 0.00 0.05 0.00 52 1013.2
20260507092648 20 66 4.8 11.3 0.00 0.05 0.00 53 1013.2
20260507092447 20 52 6.4 14.5 0.00 0.05 0.00 52 1013.2
20260507092241 20 59 8.0 14.5 0.00 0.05 0.00 53 1013.2
20260507092038 20 56 3.2 14.5 0.00 0.05 0.00 53 1013.1
20260507091840 20 117 3.2 14.5 0.00 0.05 0.00 52 1013.2
20260507091639 20 103 4.8 14.5 0.00 0.05 0.00 53 1013.2
20260507091437 19 10 1.6 8.0 0.00 0.05 0.00 51 1013.3
20260507091240 19 17 3.2 8.0 0.00 0.05 0.00 51 1013.2
20260507091037 19 79 1.6 8.0 0.00 0.05 0.00 51 1013.2
20260507090838 19 106 3.2 9.7 0.00 0.05 0.00 51 1013.3
20260507090636 19 51 4.8 11.3 0.00 0.05 0.00 52 1013.2
20260507090443 19 87 3.2 11.3 0.00 0.05 0.00 51 1013.2
20260507090239 19 87 3.2 11.3 0.00 0.05 0.00 53 1013.2
20260507090053 19 76 6.4 11.3 0.00 0.05 0.00 53 1013.2
20260507085836 19 71 8.0 11.3 0.00 0.05 0.00 53 1013.3
20260507085633 19 62 3.2 9.7 0.00 0.05 0.00 53 1013.2
20260507085433 19 290 4.8 8.0 0.00 0.05 0.00 52 1013.2
20260507085232 19 286 6.4 8.0 0.00 0.05 0.00 52 1013.2
20260507085043 19 324 6.4 8.0 0.00 0.05 0.00 52 1013.2
20260507084829 19 331 3.2 8.0 0.00 0.05 0.00 53 1013.2
20260507084629 19 0 1.6 8.0 0.00 0.05 0.00 54 1013.2
20260507084429 19 0 4.8 8.0 0.00 0.05 0.00 54 1013.1
20260507084229 19 30 4.8 8.0 0.00 0.05 0.00 53 1013.1
20260507084035 19 47 3.2 8.0 0.00 0.05 0.00 53 1013.1
20260507083827 19 75 4.8 8.0 0.00 0.05 0.00 52 1013.1
20260507083626 19 63 4.8 8.0 0.00 0.05 0.00 53 1013.1
20260507083425 19 76 3.2 8.0 0.00 0.05 0.00 54 1013.1
20260507083226 19 76 3.2 8.0 0.00 0.05 0.00 54 1013.0
20260507083041 19 125 0.0 9.7 0.00 0.08 0.00 55 1013.2
20260507082825 18 125 3.2 9.7 0.00 0.08 0.00 56 1013.1
20260507082621 18 172 3.2 9.7 0.00 0.08 0.00 57 1013.1
20260507082421 18 71 3.2 9.7 0.00 0.08 0.00 56 1013.1
20260507082220 18 72 6.4 9.7 0.00 0.08 0.00 56 1013.0
20260507082036 18 61 3.2 8.0 0.00 0.10 0.00 57 1013.0
20260507081818 18 214 0.0 8.0 0.00 0.10 0.00 56 1013.1
20260507081614 18 214 3.2 8.0 0.00 0.10 0.00 56 1013.1
20260507081425 18 214 3.2 8.0 0.00 0.10 0.00 58 1013.0
20260507081216 17 214 6.4 9.7 0.00 0.10 0.00 59 1013.0
20260507081038 17 219 3.2 9.7 0.00 0.13 0.00 60 1013.0
20260507080812 17 219 3.2 9.7 0.00 0.13 0.00 60 1013.0
20260507080615 17 219 4.8 9.7 0.00 0.13 0.00 59 1013.0
20260507080418 17 219 6.4 11.3 0.00 0.13 0.00 60 1013.0
20260507080212 17 204 4.8 11.3 0.00 0.13 0.00 60 1013.0
20260507080042 17 206 4.8 11.3 0.00 0.13 0.00 60 1013.0
20260507075810 17 202 4.8 11.3 0.00 0.13 0.00 60 1013.1
20260507075610 17 210 9.7 11.3 0.00 0.13 0.00 60 1013.0
20260507075409 17 214 4.8 9.7 0.00 0.13 0.00 61 1013.0
20260507075209 17 214 3.2 9.7 0.00 0.13 0.00 60 1012.9
20260507075016 17 203 6.4 9.7 0.00 0.13 0.00 60 1012.9
20260507074809 17 220 4.8 9.7 0.00 0.15 0.00 62 1012.9
20260507074609 17 200 6.4 9.7 0.00 0.15 0.00 61 1012.8
20260507074420 17 189 6.4 9.7 0.00 0.15 0.00 62 1012.9
20260507074205 17 206 4.8 9.7 0.00 0.15 0.00 62 1012.9
20260507074014 17 196 4.8 9.7 0.00 0.15 0.00 62 1012.9
20260507073805 17 226 4.8 11.3 0.00 0.15 0.00 63 1012.9
20260507073604 17 202 4.8 11.3 0.00 0.15 0.00 63 1012.9
20260507073403 17 221 4.8 14.5 0.00 0.15 0.00 63 1012.8
20260507073202 16 195 4.8 14.5 0.00 0.15 0.00 64 1012.9
20260507073005 16 224 4.8 14.5 0.00 0.15 0.00 64 1012.9
20260507072805 16 182 4.8 14.5 0.00 0.18 0.00 64 1012.8
20260507072601 16 193 6.4 14.5 0.00 0.18 0.00 64 1012.8
20260507072402 16 202 6.4 14.5 0.00 0.20 0.00 64 1012.8
20260507072201 16 219 6.4 14.5 0.00 0.20 0.00 64 1012.9
20260507072012 16 186 6.4 14.5 0.00 0.20 0.00 64 1012.9
20260507071808 16 182 6.4 14.5 0.00 0.23 0.00 64 1012.8
20260507071605 16 207 6.4 11.3 0.00 0.23 0.00 65 1012.8
20260507071417 16 203 4.8 16.1 0.00 0.23 0.00 65 1012.8
20260507071201 16 216 4.8 16.1 0.00 0.23 0.00 65 1012.8
20260507071017 16 164 4.8 16.1 0.00 0.25 0.00 65 1012.8
20260507070803 16 212 6.4 16.1 0.00 0.25 0.00 65 1012.7
20260507070601 16 226 9.7 16.1 0.00 0.25 0.00 64 1012.7
20260507070359 16 172 9.7 16.1 0.00 0.25 0.00 65 1012.6
20260507070158 16 197 6.4 14.5 0.00 0.25 0.00 65 1012.7
20260507065959 16 216 8.0 14.5 0.00 0.25 0.00 65 1012.7
20260507065754 16 226 6.4 9.7 0.00 0.28 0.00 65 1012.7
20260507065555 16 203 4.8 9.7 0.00 0.28 0.00 66 1012.7
20260507065355 16 224 6.4 9.7 0.00 0.28 0.00 65 1012.6
20260507065153 16 213 4.8 17.7 0.00 0.28 0.00 66 1012.6
20260507064955 16 212 4.8 17.7 0.00 0.28 0.00 66 1012.6
20260507064752 16 207 4.8 17.7 0.00 0.28 0.00 66 1012.7
20260507064551 15 204 4.8 17.7 0.00 0.28 0.00 66 1012.7
20260507064357 15 202 9.7 17.7 0.00 0.28 0.00 66 1012.7
20260507064151 15 223 6.4 16.1 0.00 0.28 0.00 66 1012.7
20260507063950 15 220 4.8 16.1 0.00 0.28 0.00 66 1012.6
20260507063750 15 219 8.0 16.1 0.00 0.28 0.00 66 1012.6
20260507063547 15 223 4.8 17.7 0.00 0.30 0.00 66 1012.6
20260507063348 15 204 8.0 17.7 0.00 0.30 0.00 66 1012.6
20260507063146 15 210 9.7 17.7 0.00 0.30 0.00 66 1012.6
20260507062946 15 188 9.7 17.7 0.00 0.30 0.00 66 1012.6
20260507062751 15 226 6.4 17.7 0.00 0.30 0.00 67 1012.5
20260507062548 15 189 6.4 16.1 0.00 0.33 0.00 67 1012.5
20260507062344 15 227 3.2 16.1 0.00 0.33 0.00 67 1012.5
20260507062145 15 231 4.8 16.1 0.00 0.33 0.00 68 1012.4
20260507061945 15 230 6.4 16.1 0.00 0.36 0.00 68 1012.5
20260507061743 15 244 6.4 16.1 0.00 0.38 0.00 67 1012.5
20260507061542 15 200 8.0 16.1 0.00 0.38 0.00 68 1012.5
20260507061351 15 192 6.4 14.5 0.00 0.41 0.00 67 1012.5
20260507061142 15 154 6.4 14.5 0.00 0.41 0.00 67 1012.4
20260507060941 15 202 6.4 14.5 0.00 0.43 0.00 67 1012.4
20260507060742 15 206 3.2 9.7 0.00 0.43 0.00 68 1012.5
20260507060540 15 221 4.8 9.7 0.00 0.43 0.00 68 1012.4
20260507060344 15 200 4.8 8.0 0.00 0.43 0.00 68 1012.3
20260507060138 15 200 4.8 8.0 0.00 0.46 0.00 68 1012.3
20260507055936 15 212 4.8 8.0 0.00 0.46 0.00 68 1012.3
20260507055738 15 209 4.8 8.0 0.00 0.46 0.00 69 1012.3
20260507055537 15 214 4.8 8.0 0.00 0.46 0.00 70 1012.2
20260507055340 14 213 3.2 6.4 0.00 0.48 0.00 70 1012.2
20260507055136 14 206 3.2 9.7 0.00 0.51 0.00 71 1012.2
20260507054934 14 206 3.2 11.3 0.00 0.51 0.00 71 1012.1
20260507054733 14 203 3.2 11.3 0.00 0.51 0.00 71 1012.2
20260507054533 14 195 4.8 11.3 0.00 0.53 0.00 71 1012.2
20260507054347 14 206 4.8 11.3 0.00 0.56 0.00 71 1012.2
20260507054132 14 202 6.4 11.3 0.00 0.58 0.00 71 1012.1
20260507053938 14 203 4.8 9.7 0.00 0.58 0.00 71 1012.2
20260507053735 14 217 4.8 9.7 0.00 0.61 0.00 71 1012.1
20260507053533 14 214 6.4 9.7 0.00 0.61 0.00 71 1012.1
20260507053334 14 197 3.2 8.0 0.00 0.61 0.00 71 1012.1
20260507053130 14 189 3.2 4.8 0.00 0.61 0.00 72 1012.1
20260507052930 14 189 3.2 4.8 0.00 0.64 0.00 73 1012.0
20260507052730 13 189 1.6 4.8 0.00 0.64 0.00 74 1012.0
20260507052529 13 189 0.0 4.8 0.00 0.64 0.00 74 1012.0
20260507052329 13 189 1.6 4.8 0.00 0.64 0.00 75 1012.0
20260507052131 13 189 1.6 6.4 0.00 0.64 0.00 75 1012.0
20260507051923 13 189 1.6 8.0 0.00 0.64 0.00 75 1011.9
20260507051723 13 189 1.6 8.0 0.00 0.66 0.00 76 1011.8
20260507051523 13 189 3.2 8.0 0.00 0.66 0.00 76 1011.9
20260507051332 13 189 3.2 8.0 0.00 0.66 0.00 77 1011.9
20260507051120 13 195 3.2 8.0 0.00 0.66 0.00 77 1011.9
20260507050920 12 209 4.8 8.0 0.00 0.69 0.00 77 1011.9
20260507050717 12 199 4.8 8.0 0.00 0.69 0.00 78 1011.8
20260507050523 12 196 4.8 8.0 0.00 0.69 0.00 78 1011.9
20260507050316 12 204 3.2 8.0 0.00 0.69 0.00 80 1011.9
20260507050111 12 202 3.2 6.4 0.00 0.69 0.00 80 1011.9
20260507045910 12 203 4.8 6.4 0.00 0.69 0.00 81 1011.9
20260507045709 12 204 3.2 6.4 0.00 0.71 0.00 81 1011.8
20260507045515 12 203 3.2 4.8 0.00 0.71 0.00 82 1011.7
20260507045308 12 203 3.2 4.8 0.00 0.71 0.00 83 1011.7
20260507045107 12 203 3.2 4.8 0.00 0.71 0.00 84 1011.7
20260507044906 11 203 1.6 4.8 0.00 0.71 0.00 85 1011.7
20260507044706 11 203 0.0 4.8 0.00 0.71 0.00 85 1011.6
20260507044513 11 203 0.0 4.8 0.00 0.71 0.00 86 1011.7
20260507044303 11 203 1.6 4.8 0.00 0.74 0.00 86 1011.6
20260507044102 11 203 1.6 4.8 0.00 0.74 0.00 86 1011.5
20260507043909 11 203 1.6 4.8 0.00 0.76 0.00 86 1011.6
20260507043705 11 203 1.6 3.2 0.00 0.76 0.00 86 1011.5
20260507043507 11 203 0.0 3.2 0.00 0.76 0.00 86 1011.5
20260507043300 11 203 1.6 3.2 0.00 0.79 0.00 86 1011.5
20260507043059 11 203 1.6 4.8 0.00 0.79 0.00 86 1011.5
20260507042902 11 203 0.0 6.4 0.00 0.79 0.00 85 1011.5
20260507042659 11 203 0.0 6.4 0.00 0.81 0.00 85 1011.5
20260507042458 11 203 0.0 6.4 0.00 0.84 0.00 85 1011.4
20260507042259 11 203 1.6 6.4 0.00 0.89 0.00 85 1011.4
20260507042057 11 203 3.2 6.4 0.00 0.89 0.00 85 1011.4
20260507041859 11 262 3.2 6.4 0.00 0.91 0.00 85 1011.4
20260507041658 11 264 4.8 6.4 0.00 0.97 0.00 85 1011.4
20260507041457 11 264 3.2 6.4 0.00 0.99 0.00 85 1011.5
20260507041257 11 264 3.2 6.4 0.00 1.02 0.00 85 1011.5
20260507041055 11 264 1.6 6.4 0.00 1.07 0.00 85 1011.4
20260507040853 11 264 3.2 6.4 0.00 1.09 0.00 85 1011.4
20260507040651 11 264 3.2 6.4 0.00 1.12 0.00 85 1011.4
20260507040451 11 264 3.2 6.4 0.00 1.14 0.00 84 1011.4
20260507040250 11 264 1.6 6.4 0.00 1.17 0.00 85 1011.4
20260507040050 11 264 3.2 6.4 0.00 1.17 0.00 84 1011.4
20260507035853 11 264 3.2 6.4 0.00 1.19 0.00 84 1011.4
20260507035649 11 264 3.2 6.4 0.00 1.22 0.00 84 1011.3
20260507035450 12 264 4.8 6.4 0.00 1.24 0.00 84 1011.2
20260507035248 12 264 3.2 6.4 0.00 1.27 0.00 84 1011.2
20260507035047 12 264 0.0 4.8 0.00 1.27 0.00 84 1011.2
20260507034850 12 264 0.0 4.8 0.00 1.27 0.00 83 1011.2
20260507034652 12 264 0.0 6.4 0.00 1.27 0.00 83 1011.2
20260507034448 12 264 1.6 8.0 0.00 1.30 0.00 83 1011.2
20260507034246 12 264 1.6 8.0 0.00 1.30 0.00 83 1011.2
20260507034045 12 264 3.2 8.0 0.00 1.32 0.00 83 1011.1
20260507033846 12 264 3.2 8.0 0.00 1.32 0.00 82 1011.1
20260507033649 12 244 3.2 9.7 0.00 1.32 0.00 82 1011.2
20260507033443 12 227 1.6 9.7 0.00 1.32 0.00 82 1011.1
20260507033243 12 227 1.6 9.7 0.00 1.32 0.00 82 1011.1
20260507033041 12 227 3.2 9.7 0.00 1.32 0.00 82 1011.2
20260507032840 12 227 6.4 9.7 0.00 1.32 0.00 82 1011.1
20260507032639 12 224 8.0 8.0 0.00 1.32 0.00 82 1011.2
20260507032441 12 226 4.8 6.4 0.00 1.32 0.00 81 1011.1
20260507032239 12 226 3.2 4.8 0.00 1.32 0.00 81 1011.2
20260507032038 12 226 3.2 4.8 0.00 1.32 0.00 81 1011.2
20260507031839 12 226 1.6 6.4 0.00 1.32 0.00 81 1011.2
20260507031637 12 226 3.2 8.0 0.00 1.32 0.00 81 1011.1
20260507031438 12 226 1.6 8.0 0.00 1.32 0.00 81 1011.1
20260507031236 12 226 3.2 8.0 0.00 1.32 0.00 81 1011.0
20260507031040 12 226 3.2 8.0 0.00 1.32 0.00 81 1011.0
20260507030837 12 226 4.8 8.0 0.00 1.32 0.00 81 1011.0
20260507030636 12 224 3.2 8.0 0.00 1.32 0.00 81 1011.0
20260507030439 12 224 4.8 9.7 0.00 1.32 0.00 81 1011.0
20260507030236 12 226 6.4 9.7 0.00 1.32 0.00 81 1011.0
20260507030045 12 224 6.4 9.7 0.00 1.32 0.00 81 1011.0
20260507025832 12 220 6.4 9.7 0.00 1.32 0.00 81 1011.0
20260507025635 12 185 6.4 9.7 0.00 1.32 0.00 81 1011.0
20260507025432 12 230 6.4 9.7 0.00 1.32 0.00 81 1011.0
20260507025232 13 226 6.4 11.3 0.00 1.32 0.00 81 1011.1
20260507025030 13 220 6.4 14.5 0.00 1.35 0.00 80 1011.0
20260507024828 13 223 6.4 14.5 0.00 1.35 0.00 80 1011.0
20260507024626 13 223 6.4 14.5 0.00 1.35 0.00 80 1011.1
20260507024427 13 224 4.8 14.5 0.00 1.35 0.00 81 1011.0
20260507024228 13 224 6.4 9.7 0.00 1.35 0.00 81 1011.0
20260507024027 13 221 3.2 9.7 0.00 1.35 0.00 81 1011.0
20260507023824 13 227 3.2 9.7 0.00 1.37 0.00 81 1011.0
20260507023623 13 288 4.8 9.7 0.00 1.37 0.00 81 1010.9
20260507023226 13 203 3.2 8.0 0.00 1.40 0.00 80 1011.0
20260507023022 13 175 4.8 9.7 0.00 1.40 0.00 80 1010.9
20260507022820 13 228 3.2 9.7 0.00 1.40 0.00 79 1010.9
20260507022620 13 243 3.2 9.7 0.00 1.42 0.00 79 1011.0
20260507022419 13 226 4.8 9.7 0.00 1.42 0.00 79 1010.9
20260507022221 13 278 6.4 9.7 0.00 1.45 0.00 79 1010.9
20260507022020 13 233 6.4 17.7 0.00 1.45 0.00 79 1010.9
20260507021817 13 221 6.4 17.7 0.00 1.45 0.00 78 1010.9
20260507021617 13 202 6.4 17.7 0.00 1.45 0.00 78 1010.9
20260507021417 13 231 8.0 17.7 0.00 1.47 0.00 78 1010.9
20260507021218 13 213 8.0 17.7 0.00 1.50 0.00 78 1010.9
20260507021017 13 228 8.0 16.1 0.00 1.50 0.00 78 1010.8
20260507020813 13 226 11.3 16.1 0.00 1.52 0.00 78 1010.9
20260507020613 13 224 9.7 14.5 0.00 1.52 0.00 78 1011.0
20260507020420 13 224 8.0 11.3 0.00 1.52 0.00 78 1011.0
20260507020216 13 203 4.8 11.3 0.00 1.52 0.00 77 1010.9
20260507020038 13 310 6.4 17.7 0.00 1.52 0.00 77 1011.0
20260507015814 14 244 3.2 17.7 0.00 1.52 0.00 76 1010.9
20260507015609 14 261 3.2 17.7 0.00 1.52 0.00 76 1010.8
20260507015408 14 327 4.8 17.7 0.00 1.52 0.00 75 1010.9
20260507015207 14 248 8.0 17.7 0.00 1.52 0.00 75 1010.8
20260507015018 14 197 9.7 17.7 0.00 1.55 0.00 75 1010.8
20260507014807 14 226 9.7 17.7 0.00 1.55 0.00 74 1010.7
20260507014608 14 219 9.7 19.3 0.00 1.55 0.00 74 1010.8
20260507014405 14 228 8.0 19.3 0.00 1.55 0.00 75 1010.7
20260507014205 14 228 9.7 19.3 0.00 1.55 0.00 75 1010.7
20260507014013 14 200 9.7 19.3 0.00 1.55 0.00 75 1010.6
20260507013804 14 227 11.3 19.3 0.00 1.57 0.00 75 1010.6
20260507013608 14 186 9.7 20.9 0.00 1.57 0.00 75 1010.6
20260507013404 14 183 8.0 20.9 0.00 1.60 0.00 75 1010.7
20260507013201 14 206 8.0 20.9 0.00 1.60 0.00 75 1010.7
20260507013014 14 226 8.0 20.9 0.00 1.63 0.00 75 1010.7
20260507012802 14 188 11.3 20.9 0.00 1.65 0.00 75 1010.7
20260507012601 14 179 8.0 19.3 0.00 1.65 0.00 75 1010.7
20260507012401 14 200 8.0 19.3 0.00 1.68 0.00 75 1010.7
20260507012201 14 200 9.7 19.3 0.00 1.73 0.00 75 1010.6
20260507012001 14 217 11.3 19.3 0.00 1.73 0.00 75 1010.5
20260507011800 14 190 11.3 19.3 0.00 1.75 0.00 76 1010.6
20260507011559 14 196 6.4 22.5 0.00 1.75 0.00 77 1010.6
20260507011402 13 230 8.0 22.5 0.00 1.78 0.00 78 1010.6
20260507011137 13 223 3.2 22.5 0.00 1.80 0.00 79 1010.6
20260507010938 13 212 6.4 22.5 0.00 1.83 0.00 80 1010.7
20260507010738 13 226 1.6 6.4 0.00 1.83 0.00 80 1010.7
20260507010533 13 221 1.6 8.0 0.00 1.83 0.00 80 1010.6
20260507010330 13 221 1.6 9.7 0.00 1.83 0.00 81 1010.5
20260507010129 13 224 3.2 9.7 0.00 1.83 0.00 81 1010.5
20260507005931 13 224 3.2 9.7 0.00 1.85 0.00 81 1010.5
20260507005730 13 224 3.2 9.7 0.00 1.88 0.00 80 1010.6
20260507005534 13 226 6.4 9.7 0.00 1.93 0.00 80 1010.6
20260507005326 13 206 4.8 9.7 0.00 1.93 0.00 80 1010.6
20260507005128 13 212 6.4 9.7 0.00 1.96 0.00 80 1010.6
20260507004930 13 220 4.8 9.7 0.00 2.01 0.00 79 1010.7
20260507004725 13 226 6.4 9.7 0.00 2.03 0.00 79 1010.7
20260507004524 13 259 6.4 9.7 0.00 2.03 0.00 79 1010.7
20260507004323 13 264 6.4 9.7 0.00 2.06 0.00 79 1010.7
20260507004123 13 264 4.8 8.0 0.00 2.08 0.00 79 1010.7
20260507003922 13 276 1.6 9.7 0.00 2.11 0.00 79 1010.7
20260507003724 13 276 4.8 9.7 0.00 2.11 0.00 79 1010.7
20260507003520 13 245 4.8 9.7 0.00 2.11 0.00 80 1010.7
20260507003319 13 243 4.8 9.7 0.00 2.13 0.00 80 1010.8
20260507003118 13 243 6.4 9.7 0.00 2.16 0.00 80 1010.8
20260507002923 13 231 4.8 8.0 0.00 2.16 0.00 79 1010.8
20260507002716 13 231 4.8 8.0 0.00 2.18 0.00 79 1010.7
20260507002519 13 230 4.8 8.0 0.00 2.18 0.00 79 1010.8
20260507002316 13 230 6.4 9.7 0.00 2.18 0.00 79 1010.8
20260507002114 13 228 4.8 9.7 0.00 2.21 0.00 79 1010.7
20260507001924 13 228 4.8 11.3 0.00 2.21 0.00 79 1010.7
20260507001713 13 226 6.4 11.3 0.00 2.21 0.00 79 1010.7
20260507001518 13 226 8.0 11.3 0.00 2.21 0.00 79 1010.7
20260507001312 13 226 6.4 11.3 0.00 2.21 0.00 79 1010.7
20260507001111 13 227 8.0 11.3 0.00 2.21 0.00 79 1010.8
20260507000916 13 209 6.4 9.7 0.00 2.21 0.00 79 1010.8
20260507000715 13 207 6.4 9.7 0.00 2.21 0.00 79 1010.8
20260507000520 13 206 6.4 8.0 0.00 2.21 0.00 80 1010.8
20260507000314 13 206 3.2 6.4 0.00 2.21 0.00 80 1010.9
20260507000109 13 206 3.2 6.4 0.00 2.21 0.00 80 1010.9
20260506235916 13 206 3.2 6.4 0.00 2.21 0.00 80 1010.8
20260506235709 13 206 4.8 6.4 0.00 2.21 0.00 79 1010.8
20260506235515 13 206 3.2 4.8 0.00 2.21 0.00 79 1010.8
20260506235307 13 206 3.2 4.8 0.00 2.21 0.00 79 1010.8
20260506235105 13 206 3.2 4.8 0.00 2.21 0.00 79 1010.7
20260506234909 13 206 1.6 6.4 0.00 2.21 0.00 79 1010.7
20260506234703 13 206 3.2 9.7 0.00 2.21 0.00 79 1010.7
20260506234515 13 206 1.6 9.7 0.00 2.21 0.00 79 1010.8
20260506234309 13 206 3.2 9.7 0.00 2.24 0.00 79 1010.8
20260506234107 13 206 3.2 9.7 0.00 2.24 0.00 78 1010.7
20260506233901 13 204 4.8 9.7 0.00 2.26 0.00 79 1010.7
20260506233656 13 202 3.2 6.4 0.00 2.26 0.00 78 1010.6
20260506233456 13 202 3.2 6.4 0.00 2.26 0.00 78 1010.8
20260506233257 13 202 3.2 8.0 0.00 2.26 0.00 78 1010.9
20260506233057 13 202 3.2 8.0 0.00 2.26 0.00 78 1010.8
20260506232854 13 202 3.2 8.0 0.00 2.29 0.00 77 1010.8
20260506232654 13 202 4.8 8.0 0.00 2.29 0.00 77 1010.8
20260506232451 14 202 4.8 8.0 0.00 2.29 0.00 77 1010.9
20260506232250 14 202 4.8 8.0 0.00 2.29 0.00 76 1010.8
20260506232051 14 200 3.2 6.4 0.00 2.29 0.00 76 1010.7
20260506231850 14 200 3.2 6.4 0.00 2.29 0.00 76 1010.8
20260506231650 14 200 3.2 6.4 0.00 2.29 0.00 75 1010.8
20260506231450 14 200 3.2 6.4 0.00 2.29 0.00 75 1010.8
20260506231250 14 200 3.2 6.4 0.00 2.29 0.00 75 1010.9
20260506231037 14 200 3.2 6.4 0.00 2.29 0.00 74 1010.9
20260506230836 15 200 3.2 6.4 0.00 2.29 0.00 74 1010.9
20260506230636 15 200 3.2 8.0 0.00 2.29 0.00 73 1011.0
20260506230434 15 200 3.2 8.0 0.00 2.29 0.00 73 1010.9
20260506230237 15 200 3.2 9.7 0.00 2.29 0.00 72 1010.9
20260506230044 15 200 3.2 9.7 0.00 2.29 0.00 72 1010.8
20260506225836 15 196 4.8 9.7 0.00 2.29 0.00 71 1010.8
20260506225632 15 196 6.4 9.7 0.00 2.29 0.00 71 1010.9
20260506225430 15 204 6.4 9.7 0.00 2.29 0.00 71 1011.0
20260506225227 15 214 3.2 8.0 0.00 2.29 0.00 71 1010.9
20260506225031 15 214 4.8 8.0 0.00 2.29 0.00 71 1010.9
20260506224826 15 216 6.4 9.7 0.00 2.29 0.00 72 1010.9
20260506224626 15 216 4.8 9.7 0.00 2.29 0.00 72 1010.8
20260506224433 15 217 4.8 9.7 0.00 2.29 0.00 72 1010.9
20260506224225 15 217 4.8 9.7 0.00 2.29 0.00 71 1010.9
20260506224026 15 217 4.8 9.7 0.00 2.29 0.00 71 1010.9
20260506223822 15 217 3.2 9.7 0.00 2.29 0.00 71 1010.8
20260506223623 15 219 6.4 9.7 0.00 2.29 0.00 70 1010.8
20260506223423 15 202 3.2 8.0 0.00 2.29 0.00 70 1010.9
20260506223233 15 200 4.8 8.0 0.00 2.29 0.00 70 1010.8
20260506223023 15 203 3.2 9.7 0.00 2.29 0.00 70 1010.8
20260506222818 15 202 3.2 9.7 0.00 2.29 0.00 71 1010.8
20260506222618 15 199 4.8 9.7 0.00 2.29 0.00 71 1010.9
20260506222417 15 199 4.8 11.3 0.00 2.29 0.00 71 1010.9
20260506222218 15 195 6.4 14.5 0.00 2.29 0.00 71 1010.9
20260506222023 15 196 4.8 14.5 0.00 2.29 0.00 71 1010.8
20260506221811 15 197 3.2 14.5 0.00 2.29 0.00 71 1010.9
20260506221614 15 185 6.4 14.5 0.00 2.29 0.00 70 1010.9
20260506221411 15 202 6.4 16.1 0.00 2.29 0.00 71 1010.9
20260506221221 15 213 8.0 17.7 0.00 2.29 0.00 70 1010.8
20260506221025 15 207 8.0 17.7 0.00 2.29 0.00 70 1010.9
20260506220813 15 216 9.7 17.7 0.00 2.29 0.00 70 1010.9
20260506220614 15 243 11.3 17.7 0.00 2.29 0.00 69 1010.8
20260506220417 15 197 12.9 17.7 0.00 2.29 0.00 69 1010.7
20260506220218 16 258 8.0 17.7 0.00 2.29 0.00 68 1010.8
20260506220047 16 278 9.7 17.7 0.00 2.29 0.00 67 1010.8
20260506215813 16 290 9.7 17.7 0.00 2.29 2.29 65 1010.7
20260506215613 16 234 9.7 14.5 0.00 2.29 2.29 64 1010.6
20260506215412 16 180 6.4 11.3 0.00 2.29 2.29 64 1010.5
20260506215216 16 209 4.8 14.5 0.00 2.29 2.29 64 1010.4
20260506215025 16 212 4.8 22.5 0.00 2.29 2.29 64 1010.4
20260506214810 16 183 6.4 22.5 0.00 2.29 2.29 63 1010.4
20260506214611 16 182 6.4 22.5 0.00 2.29 2.29 63 1010.4
20260506214412 16 240 6.4 22.5 0.00 2.29 2.29 63 1010.4
20260506214213 16 227 6.4 22.5 0.00 2.29 2.29 63 1010.4
20260506214020 16 196 4.8 14.5 0.00 2.29 2.29 63 1010.4
20260506213812 16 200 4.8 14.5 0.00 2.29 2.29 63 1010.3
20260506213610 16 151 6.4 14.5 0.00 2.29 2.29 63 1010.4
20260506213413 16 192 6.4 8.0 0.00 2.29 2.29 64 1010.3
20260506213214 16 151 4.8 14.5 0.00 2.29 2.29 65 1010.4
20260506213021 16 189 1.6 14.5 0.00 2.29 2.29 65 1010.3
20260506212813 16 178 1.6 14.5 0.00 2.29 2.29 65 1010.3
20260506212611 16 164 3.2 14.5 0.00 2.29 2.29 66 1010.4
20260506212415 16 221 6.4 14.5 0.00 2.29 2.29 66 1010.4
20260506212216 15 224 4.8 11.3 0.00 2.29 2.29 67 1010.3
20260506212023 15 233 4.8 11.3 0.00 2.29 2.29 67 1010.3
20260506211811 15 199 3.2 19.3 0.00 2.29 2.29 68 1010.4
20260506211610 15 196 4.8 19.3 0.00 2.29 2.29 68 1010.4
20260506211412 15 152 4.8 19.3 0.00 2.29 2.29 69 1010.4
20260506211214 15 223 3.2 19.3 0.00 2.29 2.29 69 1010.4
20260506211019 15 223 4.8 19.3 0.00 2.29 2.29 69 1010.4
20260506210812 15 235 3.2 8.0 0.00 2.29 2.29 70 1010.4
20260506210610 15 235 3.2 8.0 0.00 2.29 2.29 70 1010.5
20260506210411 15 235 4.8 8.0 0.00 2.29 2.29 70 1010.5
20260506210213 15 235 3.2 6.4 0.00 2.29 2.29 70 1010.5
20260506210038 15 235 4.8 6.4 0.00 2.29 2.29 70 1010.5
20260506205811 15 235 1.6 6.4 0.00 2.29 2.29 70 1010.5
20260506205614 15 235 3.2 6.4 0.00 2.29 2.29 69 1010.4
20260506205412 15 235 3.2 6.4 0.00 2.29 2.29 69 1010.5
20260506205213 15 235 3.2 4.8 0.00 2.29 2.29 69 1010.3
20260506205020 16 235 1.6 6.4 0.00 2.29 2.29 68 1010.3
20260506204812 16 235 1.6 6.4 0.00 2.29 2.29 67 1010.3
20260506204613 16 235 1.6 8.0 0.00 2.29 2.29 67 1010.3
20260506204412 16 235 1.6 11.3 0.00 2.29 2.29 67 1010.2
20260506204217 16 235 1.6 11.3 0.00 2.29 2.29 66 1010.2
20260506204032 16 235 4.8 11.3 0.00 2.29 2.29 66 1010.2
20260506203812 16 235 4.8 11.3 0.00 2.29 2.29 65 1010.2
20260506203613 16 220 6.4 11.3 0.00 2.29 2.29 64 1010.2
20260506203411 16 226 4.8 11.3 0.00 2.29 2.29 63 1010.2
20260506203213 16 197 3.2 11.3 0.00 2.29 2.29 62 1010.1
20260506203024 16 158 4.8 11.3 0.00 2.29 2.29 61 1010.1
20260506202812 16 186 0.0 8.0 0.00 2.29 2.29 61 1010.2
20260506202611 16 186 3.2 8.0 0.00 2.29 2.29 61 1010.1
20260506202410 16 217 3.2 8.0 0.00 2.29 2.29 61 1010.1
20260506202225 16 206 4.8 8.0 0.00 2.29 2.29 61 1010.2
20260506202027 16 235 4.8 8.0 0.00 2.29 2.29 60 1010.1
20260506201811 16 226 4.8 8.0 0.00 2.29 2.29 60 1010.0
20260506201615 16 195 1.6 6.4 0.00 2.29 2.29 61 1010.0
20260506201409 16 195 3.2 9.7 0.00 2.29 2.29 61 1010.0
20260506201203 17 209 1.6 9.7 0.00 2.29 2.29 61 1009.9
20260506201019 17 209 3.2 9.7 0.00 2.29 2.29 60 1009.9
20260506200806 17 212 4.8 9.7 0.00 2.29 2.29 60 1009.9
20260506200611 17 220 6.4 9.7 0.00 2.29 2.29 59 1009.8
20260506200406 17 213 1.6 9.7 0.00 2.29 2.29 59 1009.8
20260506200204 17 231 6.4 9.7 0.00 2.29 2.29 59 1009.8
20260506200044 17 207 4.8 9.7 0.00 2.29 2.29 58 1009.8
20260506195804 17 199 3.2 9.7 0.00 2.29 2.29 58 1009.8
20260506195607 17 186 4.8 9.7 0.00 2.29 2.29 58 1009.7
20260506195401 17 228 4.8 16.1 0.00 2.29 2.29 58 1009.8
20260506195204 17 243 6.4 16.1 0.00 2.29 2.29 57 1009.7
20260506195001 17 212 4.8 16.1 0.00 2.29 2.29 57 1009.7
20260506194801 17 228 6.4 16.1 0.00 2.29 2.29 57 1009.7
20260506194608 17 223 6.4 16.1 0.00 2.29 2.29 57 1009.6
20260506194401 17 206 4.8 11.3 0.00 2.29 2.29 57 1009.7
20260506194200 17 206 6.4 14.5 0.00 2.29 2.29 56 1009.6
20260506193959 17 237 3.2 14.5 0.00 2.29 2.29 57 1009.6
20260506193759 17 219 6.4 16.1 0.00 2.29 2.29 56 1009.5
20260506193601 17 231 6.4 16.1 0.00 2.29 2.29 56 1009.4
20260506193359 17 212 4.8 16.1 0.00 2.29 2.29 56 1009.4
20260506193158 17 219 4.8 16.1 0.00 2.29 2.29 56 1009.4
20260506192957 17 182 8.0 17.7 0.00 2.29 2.29 56 1009.3
20260506192756 17 217 4.8 17.7 0.00 2.29 2.29 56 1009.3
20260506192600 18 234 4.8 17.7 0.00 2.29 2.29 55 1009.2
20260506192356 18 137 6.4 17.7 0.00 2.29 2.29 55 1009.2
20260506192156 18 214 9.7 17.7 0.00 2.29 2.29 55 1009.2
20260506191956 18 176 6.4 14.5 0.00 2.29 2.29 55 1009.1
20260506191756 18 206 4.8 11.3 0.00 2.29 2.29 55 1009.1
20260506191551 18 182 4.8 16.1 0.00 2.29 2.29 54 1009.1
20260506191354 18 209 4.8 16.1 0.00 2.29 2.29 54 1009.0
20260506191152 18 214 4.8 17.7 0.00 2.29 2.29 54 1008.9
20260506190951 18 183 8.0 22.5 0.00 2.29 2.29 54 1008.9
20260506190749 18 221 8.0 22.5 0.00 2.29 2.29 54 1008.9
20260506190553 18 161 6.4 22.5 0.00 2.29 2.29 54 1008.8
20260506190350 18 219 9.7 22.5 0.00 2.29 2.29 53 1008.9
20260506190149 18 202 9.7 22.5 0.00 2.29 2.29 53 1008.9
20260506185949 18 197 8.0 17.7 0.00 2.29 2.29 54 1008.9
20260506185749 18 219 6.4 17.7 0.00 2.29 2.29 54 1008.8
20260506185548 18 110 8.0 19.3 0.00 2.29 2.29 54 1008.9
20260506185346 18 204 6.4 19.3 0.00 2.29 2.29 54 1008.8
20260506185147 18 193 6.4 19.3 0.00 2.29 2.29 54 1008.8
20260506184949 18 223 8.0 19.3 0.00 2.29 2.29 55 1008.9
20260506184747 18 158 9.7 19.3 0.00 2.29 2.29 56 1008.8
20260506184550 18 233 11.3 19.3 0.00 2.29 2.29 56 1008.9
20260506184344 18 216 11.3 19.3 0.00 2.29 2.29 56 1008.8
20260506184142 18 162 11.3 19.3 0.00 2.29 2.29 56 1008.8
20260506183941 18 157 12.9 19.3 0.00 2.29 2.29 56 1008.8
20260506183742 18 233 9.7 19.3 0.00 2.29 2.29 57 1008.7
20260506183539 18 227 9.7 19.3 0.00 2.29 2.29 57 1008.7
20260506183339 18 213 9.7 19.3 0.00 2.29 2.29 57 1008.7
20260506183139 18 175 9.7 19.3 0.00 2.29 2.29 57 1008.7
20260506182939 18 189 6.4 14.5 0.00 2.29 2.29 57 1008.7
20260506182738 18 148 6.4 14.5 0.00 2.29 2.29 57 1008.6
20260506182543 18 158 6.4 14.5 0.00 2.29 2.29 57 1008.6
20260506182345 18 189 6.4 14.5 0.00 2.29 2.29 58 1008.6
20260506182139 18 175 4.8 11.3 0.00 2.29 2.29 57 1008.6
20260506181938 18 137 3.2 19.3 0.00 2.29 2.29 57 1008.6
20260506181738 18 165 6.4 19.3 0.00 2.29 2.29 57 1008.6
20260506181537 18 176 6.4 19.3 0.00 2.29 2.29 57 1008.6
20260506181338 18 209 4.8 19.3 0.00 2.29 2.29 58 1008.5
20260506181135 19 171 8.0 19.3 0.00 2.29 2.29 58 1008.4
20260506180934 19 230 8.0 16.1 0.00 2.29 2.29 58 1008.4
20260506180731 19 219 6.4 9.7 0.00 2.29 2.29 58 1008.4
20260506180529 19 193 4.8 9.7 0.00 2.29 2.29 59 1008.4
20260506180332 19 233 4.8 11.3 0.00 2.29 2.29 59 1008.5
20260506180130 19 213 3.2 11.3 0.00 2.29 2.29 59 1008.4
20260506175930 19 164 4.8 11.3 0.00 2.29 2.29 59 1008.5
20260506175729 19 188 3.2 14.5 0.00 2.29 2.29 59 1008.4
20260506175530 19 155 3.2 14.5 0.00 2.29 2.29 59 1008.4
20260506175329 19 165 3.2 14.5 0.00 2.29 2.29 60 1008.4
20260506175132 19 147 3.2 14.5 0.00 2.29 2.29 60 1008.3
20260506174929 19 142 6.4 14.5 0.00 2.29 2.29 60 1008.4
20260506174729 19 202 3.2 9.7 0.00 2.29 2.29 59 1008.4
20260506174529 19 196 3.2 9.7 0.00 2.29 2.29 59 1008.4
20260506174329 19 185 3.2 9.7 0.00 2.29 2.29 60 1008.4
20260506174125 19 202 4.8 16.1 0.00 2.29 2.29 60 1008.3
20260506174001 19 186 6.4 16.1 0.00 2.29 2.29 60 1008.3
20260506173900 19 193 4.8 16.1 0.00 2.29 2.29 61 1008.3
20260506173753 19 195 3.2 16.1 0.00 2.29 2.29 60 1008.2
20260506164716 20 169 3.2 17.7 0.00 2.29 2.29 68 1008.0
20260506164519 20 110 4.8 17.7 0.00 2.29 2.29 67 1008.0
20260506164303 20 197 4.8 17.7 0.00 2.29 2.29 67 1007.9
20260506164107 20 213 6.4 17.7 0.00 2.29 2.29 66 1007.9
20260506163903 20 145 8.0 17.7 0.00 2.29 2.29 67 1007.9
20260506163705 20 192 4.8 11.3 0.00 2.29 2.29 69 1007.9
20260506163501 20 224 4.8 17.7 0.00 2.29 2.29 68 1007.9
20260506163302 20 207 8.0 17.7 0.00 2.29 2.29 68 1007.9
20260506163102 20 206 6.4 17.7 0.00 2.29 2.29 66 1007.9
20260506162901 20 185 8.0 17.7 0.00 2.29 2.29 66 1007.9
20260506162701 20 189 8.0 17.7 0.00 2.29 2.29 65 1007.8
20260506162511 20 179 8.0 16.1 0.00 2.29 2.29 66 1007.9